Time,TemperatureF,DewpointF,PressureIn,WindDirection,WindDirectionDegrees,WindSpeedMPH,WindSpeedGustMPH,Humidity,HourlyPrecipIn,Conditions,Clouds,dailyrainin,SoftwareType,DateUTC
2013-04-25 00:01:00,43.7,-40.0,29.62,SSE,157,7.0,9.0,0,0.00,,,0.00,Rainwise IP-100,2013-04-25 04:01:00,
2013-04-25 00:06:00,43.8,-40.0,29.62,SSE,157,5.0,11.0,0,0.00,,,0.00,Rainwise IP-100,2013-04-25 04:06:00,
2013-04-25 00:11:00,43.8,-40.0,29.62,ESE,112,4.0,12.0,0,0.00,,,0.00,Rainwise IP-100,2013-04-25 04:11:00,
2013-04-25 00:16:00,43.8,-40.0,29.62,SSE,157,3.0,7.0,0,0.00,,,0.00,Rainwise IP-100,2013-04-25 04:16:00,
2013-04-25 00:21:00,43.8,-40.0,29.61,SSE,157,4.0,11.0,0,0.00,,,0.00,Rainwise IP-100,2013-04-25 04:21:00,
2013-04-25 00:26:00,43.8,-40.0,29.61,SE,135,9.0,9.0,0,0.00,,,0.00,Rainwise IP-100,2013-04-25 04:26:00,
2013-04-25 00:31:00,43.8,-40.0,29.61,SSE,157,6.0,9.0,0,0.00,,,0.00,Rainwise IP-100,2013-04-25 04:31:00,
2013-04-25 00:36:00,43.7,-40.0,29.61,SSE,157,2.0,14.0,0,0.00,,,0.00,Rainwise IP-100,2013-04-25 04:36:00,
2013-04-25 00:41:00,43.8,-40.0,29.61,SSE,157,4.0,9.0,0,0.00,,,0.00,Rainwise IP-100,2013-04-25 04:41:00,
2013-04-25 00:46:00,43.8,-40.0,29.61,SSE,157,4.0,10.0,0,0.00,,,0.00,Rainwise IP-100,2013-04-25 04:46:00,
2013-04-25 00:51:00,43.9,-40.0,29.61,SSE,157,5.0,12.0,0,0.00,,,0.00,Rainwise IP-100,2013-04-25 04:51:00,
2013-04-25 00:56:00,44.1,-40.0,29.61,SSE,157,4.0,9.0,0,0.00,,,0.00,Rainwise IP-100,2013-04-25 04:56:00,
2013-04-25 01:01:00,44.3,-40.0,29.62,ESE,112,1.0,11.0,0,0.00,,,0.00,Rainwise IP-100,2013-04-25 05:01:00,
2013-04-25 01:06:00,44.7,-40.0,29.62,SE,135,1.0,13.0,0,0.00,,,0.00,Rainwise IP-100,2013-04-25 05:06:00,
2013-04-25 01:11:00,44.7,-40.0,29.61,SSW,202,4.0,8.0,0,0.00,,,0.00,Rainwise IP-100,2013-04-25 05:11:00,
2013-04-25 01:16:00,44.7,-40.0,29.61,SW,225,1.0,7.0,0,0.00,,,0.00,Rainwise IP-100,2013-04-25 05:16:00,
2013-04-25 01:21:00,44.9,-40.0,29.61,SSE,157,3.0,14.0,0,0.00,,,0.00,Rainwise IP-100,2013-04-25 05:21:00,
2013-04-25 01:26:00,45.1,-40.0,29.61,SE,135,4.0,9.0,0,0.00,,,0.00,Rainwise IP-100,2013-04-25 05:26:00,
2013-04-25 01:31:00,45.2,-40.0,29.62,WSW,247,2.0,16.0,0,0.00,,,0.00,Rainwise IP-100,2013-04-25 05:31:00,
2013-04-25 01:36:00,45.4,-40.0,29.62,East,90,3.0,15.0,0,0.00,,,0.00,Rainwise IP-100,2013-04-25 05:36:00,
2013-04-25 01:41:00,45.5,-40.0,29.62,South,180,2.0,15.0,0,0.00,,,0.00,Rainwise IP-100,2013-04-25 05:41:00,
2013-04-25 01:46:00,45.5,-40.0,29.62,SE,135,5.0,10.0,0,0.00,,,0.00,Rainwise IP-100,2013-04-25 05:46:00,
2013-04-25 01:51:00,45.6,-40.0,29.61,SE,135,6.0,12.0,0,0.00,,,0.00,Rainwise IP-100,2013-04-25 05:51:00,
2013-04-25 01:56:00,45.7,-40.0,29.61,South,180,2.0,11.0,0,0.00,,,0.00,Rainwise IP-100,2013-04-25 05:56:00,
2013-04-25 02:01:00,45.8,-40.0,29.61,SSW,202,1.0,15.0,0,0.00,,,0.00,Rainwise IP-100,2013-04-25 06:01:00,
2013-04-25 02:06:00,45.8,-40.0,29.61,SSW,202,5.0,13.0,0,0.00,,,0.00,Rainwise IP-100,2013-04-25 06:06:00,
2013-04-25 02:11:00,45.8,-40.0,29.61,SSE,157,9.0,19.0,0,0.00,,,0.00,Rainwise IP-100,2013-04-25 06:11:00,
2013-04-25 02:16:00,45.8,-40.0,29.61,SE,135,5.0,11.0,0,0.00,,,0.00,Rainwise IP-100,2013-04-25 06:16:00,
2013-04-25 02:21:00,45.8,-40.0,29.61,ESE,112,5.0,17.0,0,0.00,,,0.00,Rainwise IP-100,2013-04-25 06:21:00,
2013-04-25 02:26:00,45.8,-40.0,29.60,SW,225,3.0,13.0,0,0.00,,,0.00,Rainwise IP-100,2013-04-25 06:26:00,
2013-04-25 02:31:00,45.8,-40.0,29.60,SE,135,4.0,12.0,0,0.00,,,0.00,Rainwise IP-100,2013-04-25 06:31:00,
2013-04-25 02:36:00,45.8,-40.0,29.60,SSE,157,1.0,13.0,0,0.00,,,0.00,Rainwise IP-100,2013-04-25 06:36:00,
2013-04-25 02:41:00,45.9,-40.0,29.61,NW,315,4.0,14.0,0,0.00,,,0.00,Rainwise IP-100,2013-04-25 06:41:00,
2013-04-25 02:46:00,45.9,-40.0,29.61,South,180,1.0,11.0,0,0.00,,,0.00,Rainwise IP-100,2013-04-25 06:46:00,
2013-04-25 02:51:00,46.0,-40.0,29.61,SW,225,1.0,9.0,0,0.00,,,0.00,Rainwise IP-100,2013-04-25 06:51:00,
2013-04-25 02:56:00,46.0,-40.0,29.61,West,270,2.0,7.0,0,0.00,,,0.00,Rainwise IP-100,2013-04-25 06:56:00,
2013-04-25 03:01:00,46.1,-40.0,29.61,SW,225,3.0,10.0,0,0.00,,,0.00,Rainwise IP-100,2013-04-25 07:01:00,
2013-04-25 03:06:00,46.5,-40.0,29.61,SSW,202,3.0,12.0,0,0.00,,,0.00,Rainwise IP-100,2013-04-25 07:06:00,
2013-04-25 03:11:00,46.7,-40.0,29.61,SSW,202,3.0,12.0,0,0.00,,,0.00,Rainwise IP-100,2013-04-25 07:11:00,
2013-04-25 03:16:00,46.8,-40.0,29.61,SSE,157,2.0,11.0,0,0.00,,,0.00,Rainwise IP-100,2013-04-25 07:16:00,
2013-04-25 03:21:00,46.8,-40.0,29.61,SSE,157,2.0,11.0,0,0.00,,,0.00,Rainwise IP-100,2013-04-25 07:21:00,
2013-04-25 03:26:00,46.9,-40.0,29.61,SSW,202,1.0,9.0,0,0.00,,,0.00,Rainwise IP-100,2013-04-25 07:26:00,
2013-04-25 03:31:00,46.9,-40.0,29.61,SW,225,2.0,14.0,0,0.00,,,0.00,Rainwise IP-100,2013-04-25 07:31:00,
2013-04-25 03:36:00,46.9,-40.0,29.62,SSW,202,2.0,11.0,0,0.00,,,0.00,Rainwise IP-100,2013-04-25 07:36:00,
2013-04-25 03:41:00,46.9,-40.0,29.62,South,180,6.0,10.0,0,0.00,,,0.00,Rainwise IP-100,2013-04-25 07:41:00,
2013-04-25 03:46:00,47.1,-40.0,29.62,SSE,157,6.0,11.0,0,0.00,,,0.00,Rainwise IP-100,2013-04-25 07:46:00,
2013-04-25 03:51:00,47.1,-40.0,29.61,SW,225,4.0,10.0,0,0.00,,,0.00,Rainwise IP-100,2013-04-25 07:51:00,
2013-04-25 03:56:00,47.2,-40.0,29.61,SW,225,4.0,7.0,0,0.00,,,0.00,Rainwise IP-100,2013-04-25 07:56:00,
2013-04-25 04:01:00,47.5,-40.0,29.61,WSW,247,6.0,14.0,0,0.00,,,0.00,Rainwise IP-100,2013-04-25 08:01:00,
2013-04-25 04:06:00,47.7,-40.0,29.62,WSW,247,4.0,14.0,0,0.00,,,0.00,Rainwise IP-100,2013-04-25 08:06:00,
2013-04-25 04:11:00,47.8,-40.0,29.62,South,180,12.0,16.0,0,0.00,,,0.00,Rainwise IP-100,2013-04-25 08:11:00,
2013-04-25 04:16:00,47.9,-40.0,29.62,SSE,157,10.0,14.0,0,0.00,,,0.00,Rainwise IP-100,2013-04-25 08:16:00,
2013-04-25 04:21:00,47.9,-40.0,29.62,SSE,157,10.0,15.0,0,0.00,,,0.00,Rainwise IP-100,2013-04-25 08:21:00,
2013-04-25 04:26:00,48.0,-40.0,29.62,SSW,202,5.0,12.0,0,0.00,,,0.00,Rainwise IP-100,2013-04-25 08:26:00,
2013-04-25 04:31:00,48.0,-40.0,29.62,SSW,202,9.0,16.0,0,0.00,,,0.00,Rainwise IP-100,2013-04-25 08:31:00,
2013-04-25 04:36:00,47.9,-40.0,29.62,SSW,202,4.0,11.0,0,0.00,,,0.00,Rainwise IP-100,2013-04-25 08:36:00,
2013-04-25 04:41:00,47.9,-40.0,29.62,SSW,202,6.0,13.0,0,0.00,,,0.00,Rainwise IP-100,2013-04-25 08:41:00,
2013-04-25 04:46:00,47.9,-40.0,29.61,SSW,202,6.0,14.0,0,0.00,,,0.00,Rainwise IP-100,2013-04-25 08:46:00,
2013-04-25 04:51:00,47.9,-40.0,29.62,SE,135,1.0,8.0,0,0.00,,,0.00,Rainwise IP-100,2013-04-25 08:51:00,
2013-04-25 04:56:00,47.7,-40.0,29.62,SSW,202,1.0,11.0,0,0.00,,,0.00,Rainwise IP-100,2013-04-25 08:56:00,
2013-04-25 05:01:00,47.6,-40.0,29.62,SSW,202,4.0,14.0,0,0.00,,,0.00,Rainwise IP-100,2013-04-25 09:01:00,
2013-04-25 05:06:00,47.5,-40.0,29.62,East,90,2.0,11.0,0,0.00,,,0.00,Rainwise IP-100,2013-04-25 09:06:00,
2013-04-25 05:11:00,47.5,-40.0,29.62,SSW,202,7.0,13.0,0,0.00,,,0.00,Rainwise IP-100,2013-04-25 09:11:00,
2013-04-25 05:16:00,47.4,-40.0,29.62,SSE,157,9.0,12.0,0,0.00,,,0.00,Rainwise IP-100,2013-04-25 09:16:00,
2013-04-25 05:21:00,47.4,-40.0,29.62,ESE,112,6.0,14.0,0,0.00,,,0.00,Rainwise IP-100,2013-04-25 09:21:00,
2013-04-25 05:26:00,47.5,-40.0,29.63,SSE,157,5.0,14.0,0,0.00,,,0.00,Rainwise IP-100,2013-04-25 09:26:00,
2013-04-25 05:31:00,47.5,-40.0,29.63,South,180,6.0,12.0,0,0.00,,,0.00,Rainwise IP-100,2013-04-25 09:31:00,
2013-04-25 05:36:00,47.5,-40.0,29.63,SSE,157,6.0,11.0,0,0.00,,,0.00,Rainwise IP-100,2013-04-25 09:36:00,
2013-04-25 05:41:00,47.5,-40.0,29.63,SSE,157,7.0,9.0,0,0.00,,,0.00,Rainwise IP-100,2013-04-25 09:41:00,
2013-04-25 05:46:00,47.4,-40.0,29.63,SW,225,3.0,14.0,0,0.00,,,0.00,Rainwise IP-100,2013-04-25 09:46:00,
2013-04-25 05:51:00,47.4,-40.0,29.64,SSW,202,5.0,12.0,0,0.00,,,0.00,Rainwise IP-100,2013-04-25 09:51:00,
2013-04-25 05:56:00,47.4,-40.0,29.64,East,90,2.0,11.0,0,0.00,,,0.00,Rainwise IP-100,2013-04-25 09:56:00,
2013-04-25 06:01:00,47.4,-40.0,29.64,ESE,112,3.0,14.0,0,0.00,,,0.00,Rainwise IP-100,2013-04-25 10:01:00,
2013-04-25 06:06:00,47.3,-40.0,29.65,ESE,112,4.0,12.0,0,0.00,,,0.00,Rainwise IP-100,2013-04-25 10:06:00,
2013-04-25 06:11:00,47.3,-40.0,29.65,South,180,1.0,9.0,0,0.00,,,0.00,Rainwise IP-100,2013-04-25 10:11:00,
2013-04-25 06:16:00,47.4,-40.0,29.65,SW,225,7.0,7.0,0,0.00,,,0.00,Rainwise IP-100,2013-04-25 10:16:00,
2013-04-25 06:21:00,47.5,-40.0,29.65,SSE,157,1.0,13.0,0,0.00,,,0.00,Rainwise IP-100,2013-04-25 10:21:00,
2013-04-25 06:26:00,47.5,-40.0,29.64,SW,225,4.0,11.0,0,0.00,,,0.00,Rainwise IP-100,2013-04-25 10:26:00,
2013-04-25 06:31:00,47.5,-40.0,29.66,SSE,157,1.0,11.0,0,0.00,,,0.00,Rainwise IP-100,2013-04-25 10:31:00,
2013-04-25 06:36:00,47.6,-40.0,29.66,WSW,247,2.0,11.0,0,0.00,,,0.00,Rainwise IP-100,2013-04-25 10:36:00,
2013-04-25 06:41:00,47.5,-40.0,29.66,ESE,112,1.0,9.0,0,0.00,,,0.00,Rainwise IP-100,2013-04-25 10:41:00,
2013-04-25 06:46:00,47.5,-40.0,29.66,SSW,202,2.0,6.0,0,0.00,,,0.00,Rainwise IP-100,2013-04-25 10:46:00,
2013-04-25 06:51:00,47.5,-40.0,29.66,SSE,157,2.0,12.0,0,0.00,,,0.00,Rainwise IP-100,2013-04-25 10:51:00,
2013-04-25 06:56:00,47.5,-40.0,29.66,SSE,157,4.0,6.0,0,0.00,,,0.00,Rainwise IP-100,2013-04-25 10:56:00,
2013-04-25 07:01:00,47.4,-40.0,29.65,SSE,157,1.0,9.0,0,0.00,,,0.00,Rainwise IP-100,2013-04-25 11:01:00,
2013-04-25 07:06:00,47.4,-40.0,29.67,WSW,247,2.0,6.0,0,0.00,,,0.00,Rainwise IP-100,2013-04-25 11:06:00,
2013-04-25 07:11:00,47.3,-40.0,29.66,SE,135,2.0,5.0,0,0.00,,,0.00,Rainwise IP-100,2013-04-25 11:11:00,
2013-04-25 07:16:00,47.2,-40.0,29.67,South,180,0.0,5.0,0,0.00,,,0.00,Rainwise IP-100,2013-04-25 11:16:00,
2013-04-25 07:21:00,47.3,-40.0,29.67,SSE,157,1.0,4.0,0,0.00,,,0.00,Rainwise IP-100,2013-04-25 11:21:00,
2013-04-25 07:26:00,47.2,-40.0,29.66,ESE,112,2.0,7.0,0,0.00,,,0.00,Rainwise IP-100,2013-04-25 11:26:00,
2013-04-25 07:31:00,47.2,-40.0,29.67,South,180,2.0,7.0,0,0.00,,,0.00,Rainwise IP-100,2013-04-25 11:31:00,
2013-04-25 07:36:00,47.2,-40.0,29.66,SE,135,2.0,7.0,0,0.00,,,0.00,Rainwise IP-100,2013-04-25 11:36:00,
2013-04-25 07:41:00,47.3,-40.0,29.68,ESE,112,2.0,6.0,0,0.06,,,0.01,Rainwise IP-100,2013-04-25 11:41:00,
2013-04-25 07:46:00,47.2,-40.0,29.69,SSW,202,6.0,7.0,0,0.12,,,0.02,Rainwise IP-100,2013-04-25 11:46:00,
2013-04-25 07:51:00,47.1,-40.0,29.68,East,90,2.0,9.0,0,0.18,,,0.04,Rainwise IP-100,2013-04-25 11:51:00,
2013-04-25 07:56:00,47.0,-40.0,29.68,SE,135,8.0,9.0,0,0.24,,,0.06,Rainwise IP-100,2013-04-25 11:56:00,
2013-04-25 08:01:00,46.9,-40.0,29.68,SSW,202,7.0,8.0,0,0.12,,,0.06,Rainwise IP-100,2013-04-25 12:01:00,
2013-04-25 08:06:00,46.9,-40.0,29.69,South,180,1.0,8.0,0,0.06,,,0.07,Rainwise IP-100,2013-04-25 12:06:00,
2013-04-25 08:11:00,47.0,-40.0,29.70,SE,135,3.0,11.0,0,0.06,,,0.07,Rainwise IP-100,2013-04-25 12:11:00,
2013-04-25 08:16:00,47.0,-40.0,29.70,ESE,112,4.0,8.0,0,0.00,,,0.07,Rainwise IP-100,2013-04-25 12:16:00,
2013-04-25 08:21:00,47.0,-40.0,29.71,SSE,157,4.0,8.0,0,0.06,,,0.08,Rainwise IP-100,2013-04-25 12:21:00,
2013-04-25 08:26:00,46.9,-40.0,29.70,SSE,157,1.0,8.0,0,0.06,,,0.08,Rainwise IP-100,2013-04-25 12:26:00,
2013-04-25 08:31:00,46.9,-40.0,29.68,ESE,112,2.0,7.0,0,0.06,,,0.09,Rainwise IP-100,2013-04-25 12:31:00,
2013-04-25 08:36:00,47.1,-40.0,29.67,ESE,112,0.0,4.0,0,0.12,,,0.10,Rainwise IP-100,2013-04-25 12:36:00,
2013-04-25 08:41:00,47.2,-40.0,29.70,WNW,292,2.0,6.0,0,0.06,,,0.10,Rainwise IP-100,2013-04-25 12:41:00,
2013-04-25 08:46:00,47.3,-40.0,29.71,SSE,157,4.0,8.0,0,0.00,,,0.10,Rainwise IP-100,2013-04-25 12:46:00,
2013-04-25 08:51:00,47.2,-40.0,29.71,SW,225,2.0,7.0,0,0.00,,,0.10,Rainwise IP-100,2013-04-25 12:51:00,
2013-04-25 08:56:00,47.2,-40.0,29.71,WSW,247,1.0,4.0,0,0.00,,,0.10,Rainwise IP-100,2013-04-25 12:56:00,
2013-04-25 09:01:00,47.2,-40.0,29.72,SW,225,2.0,3.0,0,0.06,,,0.11,Rainwise IP-100,2013-04-25 13:01:00,
2013-04-25 09:06:00,47.1,-40.0,29.73,SSE,157,4.0,6.0,0,0.06,,,0.11,Rainwise IP-100,2013-04-25 13:06:00,
2013-04-25 09:11:00,47.1,-40.0,29.72,SSE,157,1.0,6.0,0,0.00,,,0.11,Rainwise IP-100,2013-04-25 13:11:00,
2013-04-25 09:16:00,47.1,-40.0,29.72,SSW,202,2.0,5.0,0,0.00,,,0.11,Rainwise IP-100,2013-04-25 13:16:00,
2013-04-25 09:21:00,47.1,-40.0,29.73,SW,225,1.0,4.0,0,0.00,,,0.11,Rainwise IP-100,2013-04-25 13:21:00,
2013-04-25 09:26:00,47.1,-40.0,29.73,SSE,157,1.0,4.0,0,0.00,,,0.11,Rainwise IP-100,2013-04-25 13:26:00,
2013-04-25 09:31:00,47.1,-40.0,29.74,SSE,157,2.0,2.0,0,0.00,,,0.11,Rainwise IP-100,2013-04-25 13:31:00,
2013-04-25 09:36:00,47.1,-40.0,29.74,SSE,157,2.0,3.0,0,0.00,,,0.11,Rainwise IP-100,2013-04-25 13:36:00,
2013-04-25 09:41:00,47.0,-40.0,29.74,SSE,157,1.0,3.0,0,0.00,,,0.11,Rainwise IP-100,2013-04-25 13:41:00,
2013-04-25 09:46:00,47.2,-40.0,29.74,SSE,157,2.0,4.0,0,0.00,,,0.11,Rainwise IP-100,2013-04-25 13:46:00,
2013-04-25 09:51:00,47.4,-40.0,29.74,SE,135,1.0,2.0,0,0.00,,,0.11,Rainwise IP-100,2013-04-25 13:51:00,
2013-04-25 09:56:00,47.5,-40.0,29.75,South,180,2.0,3.0,0,0.00,,,0.11,Rainwise IP-100,2013-04-25 13:56:00,
2013-04-25 10:01:00,47.7,-40.0,29.76,ESE,112,2.0,4.0,0,0.00,,,0.11,Rainwise IP-100,2013-04-25 14:01:00,
2013-04-25 10:06:00,47.7,-40.0,29.76,East,90,2.0,4.0,0,0.00,,,0.11,Rainwise IP-100,2013-04-25 14:06:00,
2013-04-25 10:11:00,47.7,-40.0,29.76,East,90,2.0,2.0,0,0.00,,,0.11,Rainwise IP-100,2013-04-25 14:11:00,
2013-04-25 10:16:00,47.8,-40.0,29.76,ESE,112,2.0,3.0,0,0.00,,,0.11,Rainwise IP-100,2013-04-25 14:16:00,
2013-04-25 10:21:00,47.8,-40.0,29.76,SE,135,0.0,2.0,0,0.00,,,0.11,Rainwise IP-100,2013-04-25 14:21:00,
2013-04-25 10:26:00,48.1,-40.0,29.77,SE,135,1.0,2.0,0,0.00,,,0.11,Rainwise IP-100,2013-04-25 14:26:00,
2013-04-25 10:31:00,48.5,-40.0,29.77,SE,135,2.0,2.0,0,0.00,,,0.11,Rainwise IP-100,2013-04-25 14:31:00,
2013-04-25 10:36:00,48.7,-40.0,29.76,WSW,247,1.0,2.0,0,0.00,,,0.11,Rainwise IP-100,2013-04-25 14:36:00,
2013-04-25 10:41:00,48.9,-40.0,29.77,SSW,202,0.0,2.0,0,0.00,,,0.11,Rainwise IP-100,2013-04-25 14:41:00,
2013-04-25 10:46:00,49.3,-40.0,29.77,SE,135,0.0,2.0,0,0.00,,,0.11,Rainwise IP-100,2013-04-25 14:46:00,
2013-04-25 10:51:00,49.8,-40.0,29.77,SSE,157,0.0,2.0,0,0.00,,,0.11,Rainwise IP-100,2013-04-25 14:51:00,
2013-04-25 10:56:00,50.2,-40.0,29.79,WSW,247,2.0,4.0,0,0.00,,,0.11,Rainwise IP-100,2013-04-25 14:56:00,
2013-04-25 11:01:00,50.4,-40.0,29.79,SW,225,1.0,3.0,0,0.00,,,0.11,Rainwise IP-100,2013-04-25 15:01:00,
2013-04-25 11:06:00,50.2,-40.0,29.79,West,270,1.0,3.0,0,0.00,,,0.11,Rainwise IP-100,2013-04-25 15:06:00,
2013-04-25 11:11:00,49.9,-40.0,29.79,West,270,0.0,2.0,0,0.00,,,0.11,Rainwise IP-100,2013-04-25 15:11:00,
2013-04-25 11:16:00,49.9,-40.0,29.77,East,90,0.0,2.0,0,0.00,,,0.11,Rainwise IP-100,2013-04-25 15:16:00,
2013-04-25 11:21:00,49.9,-40.0,29.78,East,90,1.0,2.0,0,0.00,,,0.11,Rainwise IP-100,2013-04-25 15:21:00,
2013-04-25 11:26:00,50.0,-40.0,29.79,West,270,2.0,4.0,0,0.00,,,0.11,Rainwise IP-100,2013-04-25 15:26:00,
2013-04-25 11:31:00,50.2,-40.0,29.78,West,270,0.0,3.0,0,0.00,,,0.11,Rainwise IP-100,2013-04-25 15:31:00,
2013-04-25 11:36:00,50.6,-40.0,29.78,West,270,1.0,2.0,0,0.00,,,0.11,Rainwise IP-100,2013-04-25 15:36:00,
2013-04-25 11:41:00,50.7,-40.0,29.78,West,270,0.0,2.0,0,0.00,,,0.11,Rainwise IP-100,2013-04-25 15:41:00,
2013-04-25 11:46:00,50.8,-40.0,29.79,West,270,1.0,2.0,0,0.00,,,0.11,Rainwise IP-100,2013-04-25 15:46:00,
2013-04-25 11:51:00,51.1,-40.0,29.80,West,270,2.0,2.0,0,0.00,,,0.11,Rainwise IP-100,2013-04-25 15:51:00,
2013-04-25 11:56:00,51.8,-40.0,29.80,SW,225,1.0,2.0,0,0.00,,,0.11,Rainwise IP-100,2013-04-25 15:56:00,
2013-04-25 12:01:00,52.4,-40.0,29.81,WSW,247,1.0,3.0,0,0.00,,,0.11,Rainwise IP-100,2013-04-25 16:01:00,
2013-04-25 12:06:00,52.8,-40.0,29.82,WSW,247,2.0,2.0,0,0.00,,,0.11,Rainwise IP-100,2013-04-25 16:06:00,
2013-04-25 12:11:00,52.8,0.0,29.82,SSW,202,0.0,2.0,10,0.00,,,0.11,Rainwise IP-100,2013-04-25 16:11:00,
2013-04-25 12:16:00,53.3,26.0,29.82,WSW,247,1.0,3.0,33,0.00,,,0.11,Rainwise IP-100,2013-04-25 16:16:00,
2013-04-25 12:21:00,53.7,32.0,29.82,WSW,247,2.0,2.0,44,0.00,,,0.11,Rainwise IP-100,2013-04-25 16:21:00,
2013-04-25 12:26:00,53.7,41.0,29.82,WSW,247,2.0,2.0,63,0.00,,,0.11,Rainwise IP-100,2013-04-25 16:26:00,
2013-04-25 12:31:00,53.9,41.0,29.82,West,270,1.0,2.0,63,0.00,,,0.11,Rainwise IP-100,2013-04-25 16:31:00,
2013-04-25 12:36:00,54.4,38.0,29.82,WSW,247,2.0,2.0,54,0.00,,,0.11,Rainwise IP-100,2013-04-25 16:36:00,
2013-04-25 12:41:00,55.2,41.0,29.83,South,180,0.0,2.0,60,0.00,,,0.11,Rainwise IP-100,2013-04-25 16:41:00,
2013-04-25 12:46:00,55.4,50.5,29.82,West,270,3.0,6.0,85,0.00,,,0.11,Rainwise IP-100,2013-04-25 16:46:00,
2013-04-25 12:51:00,55.7,53.5,29.83,West,270,2.0,3.0,90,0.00,,,0.11,Rainwise IP-100,2013-04-25 16:51:00,
2013-04-25 12:56:00,55.9,53.5,29.82,WSW,247,1.0,4.0,91,0.00,,,0.11,Rainwise IP-100,2013-04-25 16:56:00,
2013-04-25 13:01:00,55.6,53.5,29.84,SW,225,1.0,4.0,90,0.00,,,0.11,Rainwise IP-100,2013-04-25 17:01:00,
2013-04-25 13:06:00,55.7,52.0,29.83,West,270,1.0,2.0,87,0.00,,,0.11,Rainwise IP-100,2013-04-25 17:06:00,
2013-04-25 13:11:00,55.6,53.5,29.84,WSW,247,2.0,3.0,91,0.00,,,0.11,Rainwise IP-100,2013-04-25 17:11:00,
2013-04-25 13:16:00,56.3,54.0,29.84,SW,225,1.0,4.0,91,0.00,,,0.11,Rainwise IP-100,2013-04-25 17:16:00,
2013-04-25 13:21:00,56.6,53.5,29.85,West,270,2.0,4.0,90,0.00,,,0.11,Rainwise IP-100,2013-04-25 17:21:00,
2013-04-25 13:26:00,56.7,54.0,29.84,West,270,2.0,4.0,91,0.00,,,0.11,Rainwise IP-100,2013-04-25 17:26:00,
2013-04-25 13:31:00,56.9,54.5,29.84,WSW,247,2.0,4.0,91,0.00,,,0.11,Rainwise IP-100,2013-04-25 17:31:00,
2013-04-25 13:36:00,56.6,50.5,29.85,West,270,3.0,4.0,80,0.00,,,0.11,Rainwise IP-100,2013-04-25 17:36:00,
2013-04-25 13:41:00,57.0,54.0,29.85,SSE,157,1.0,4.0,89,0.00,,,0.11,Rainwise IP-100,2013-04-25 17:41:00,
2013-04-25 13:46:00,57.9,53.0,29.86,West,270,1.0,3.0,81,0.00,,,0.11,Rainwise IP-100,2013-04-25 17:46:00,
2013-04-25 13:51:00,58.2,49.0,29.86,West,270,2.0,4.0,72,0.00,,,0.11,Rainwise IP-100,2013-04-25 17:51:00,
2013-04-25 13:56:00,58.5,50.5,29.86,WSW,247,2.0,4.0,73,0.00,,,0.11,Rainwise IP-100,2013-04-25 17:56:00,
2013-04-25 14:01:00,58.1,47.0,29.87,WSW,247,2.0,4.0,65,0.00,,,0.11,Rainwise IP-100,2013-04-25 18:01:00,
2013-04-25 14:06:00,58.4,50.0,29.87,West,270,2.0,3.0,74,0.00,,,0.11,Rainwise IP-100,2013-04-25 18:06:00,
2013-04-25 14:11:00,58.7,51.0,29.88,West,270,2.0,2.0,76,0.00,,,0.11,Rainwise IP-100,2013-04-25 18:11:00,
2013-04-25 14:16:00,58.8,47.0,29.88,West,270,2.0,3.0,64,0.00,,,0.11,Rainwise IP-100,2013-04-25 18:16:00,
2013-04-25 14:21:00,59.1,45.0,29.88,West,270,1.0,4.0,59,0.00,,,0.11,Rainwise IP-100,2013-04-25 18:21:00,
2013-04-25 14:26:00,59.6,46.0,29.89,WSW,247,2.0,4.0,61,0.00,,,0.11,Rainwise IP-100,2013-04-25 18:26:00,
2013-04-25 14:31:00,59.6,47.5,29.89,WSW,247,1.0,3.0,65,0.00,,,0.11,Rainwise IP-100,2013-04-25 18:31:00,
2013-04-25 14:36:00,59.6,42.0,29.90,WSW,247,4.0,5.0,52,0.00,,,0.11,Rainwise IP-100,2013-04-25 18:36:00,
2013-04-25 14:41:00,59.3,44.0,29.89,WSW,247,3.0,6.0,56,0.00,,,0.11,Rainwise IP-100,2013-04-25 18:41:00,
2013-04-25 14:46:00,58.9,44.0,29.89,West,270,4.0,6.0,57,0.00,,,0.11,Rainwise IP-100,2013-04-25 18:46:00,
2013-04-25 14:51:00,59.6,44.0,29.89,WSW,247,2.0,4.0,56,0.00,,,0.11,Rainwise IP-100,2013-04-25 18:51:00,
2013-04-25 14:56:00,59.9,43.0,29.89,West,270,2.0,5.0,54,0.00,,,0.11,Rainwise IP-100,2013-04-25 18:56:00,
2013-04-25 15:01:00,59.2,43.0,29.89,WNW,292,4.0,6.0,55,0.00,,,0.11,Rainwise IP-100,2013-04-25 19:01:00,
2013-04-25 15:06:00,58.8,40.0,29.88,West,270,4.0,7.0,50,0.00,,,0.11,Rainwise IP-100,2013-04-25 19:06:00,
2013-04-25 15:11:00,58.8,42.0,29.88,West,270,2.0,6.0,54,0.00,,,0.11,Rainwise IP-100,2013-04-25 19:11:00,
2013-04-25 15:16:00,59.4,45.0,29.88,WSW,247,4.0,5.0,58,0.00,,,0.11,Rainwise IP-100,2013-04-25 19:16:00,
2013-04-25 15:21:00,59.6,42.0,29.88,WSW,247,3.0,6.0,53,0.00,,,0.11,Rainwise IP-100,2013-04-25 19:21:00,
2013-04-25 15:26:00,59.8,43.0,29.88,West,270,2.0,4.0,54,0.00,,,0.11,Rainwise IP-100,2013-04-25 19:26:00,
2013-04-25 15:31:00,59.8,42.0,29.88,West,270,4.0,6.0,52,0.00,,,0.11,Rainwise IP-100,2013-04-25 19:31:00,
2013-04-25 15:36:00,60.2,43.0,29.88,West,270,2.0,6.0,53,0.00,,,0.11,Rainwise IP-100,2013-04-25 19:36:00,
2013-04-25 15:41:00,60.2,42.0,29.88,WSW,247,3.0,7.0,51,0.00,,,0.11,Rainwise IP-100,2013-04-25 19:41:00,
2013-04-25 15:46:00,60.6,41.0,29.89,West,270,2.0,6.0,49,0.00,,,0.11,Rainwise IP-100,2013-04-25 19:46:00,
2013-04-25 15:51:00,60.9,41.0,29.89,NW,315,1.0,3.0,49,0.00,,,0.11,Rainwise IP-100,2013-04-25 19:51:00,
2013-04-25 15:56:00,61.7,45.0,29.89,WSW,247,2.0,2.0,54,0.00,,,0.11,Rainwise IP-100,2013-04-25 19:56:00,
2013-04-25 16:01:00,61.7,45.0,29.89,SW,225,2.0,3.0,55,0.00,,,0.11,Rainwise IP-100,2013-04-25 20:01:00,
2013-04-25 16:06:00,62.0,42.0,29.90,SW,225,3.0,3.0,48,0.00,,,0.11,Rainwise IP-100,2013-04-25 20:06:00,
2013-04-25 16:11:00,61.7,44.0,29.90,West,270,2.0,4.0,52,0.00,,,0.11,Rainwise IP-100,2013-04-25 20:11:00,
2013-04-25 16:16:00,61.5,45.0,29.90,SW,225,1.0,2.0,55,0.00,,,0.11,Rainwise IP-100,2013-04-25 20:16:00,
2013-04-25 16:21:00,61.4,45.0,29.90,WNW,292,1.0,2.0,54,0.00,,,0.11,Rainwise IP-100,2013-04-25 20:21:00,
2013-04-25 16:26:00,61.5,50.5,29.90,WSW,247,0.0,2.0,67,0.00,,,0.11,Rainwise IP-100,2013-04-25 20:26:00,
2013-04-25 16:31:00,61.6,50.0,29.90,WSW,247,0.0,0.0,65,0.00,,,0.11,Rainwise IP-100,2013-04-25 20:31:00,
2013-04-25 16:36:00,61.1,47.5,29.90,WSW,247,0.0,2.0,61,0.00,,,0.11,Rainwise IP-100,2013-04-25 20:36:00,
2013-04-25 16:41:00,60.2,45.0,29.91,North,360,0.0,2.0,58,0.00,,,0.11,Rainwise IP-100,2013-04-25 20:41:00,
2013-04-25 16:46:00,60.4,45.0,29.91,North,360,0.0,0.0,56,0.00,,,0.11,Rainwise IP-100,2013-04-25 20:46:00,
2013-04-25 16:51:00,60.6,46.0,29.91,NNE,22,1.0,2.0,58,0.00,,,0.11,Rainwise IP-100,2013-04-25 20:51:00,
2013-04-25 16:56:00,61.2,43.0,29.91,NW,315,1.0,3.0,52,0.00,,,0.11,Rainwise IP-100,2013-04-25 20:56:00,
2013-04-25 17:01:00,61.7,46.0,29.91,WSW,247,0.0,3.0,56,0.00,,,0.11,Rainwise IP-100,2013-04-25 21:01:00,
2013-04-25 17:06:00,61.6,50.0,29.92,North,360,1.0,4.0,65,0.00,,,0.11,Rainwise IP-100,2013-04-25 21:06:00,
2013-04-25 17:11:00,61.5,42.0,29.92,ESE,112,1.0,5.0,49,0.00,,,0.11,Rainwise IP-100,2013-04-25 21:11:00,
2013-04-25 17:16:00,61.2,40.0,29.92,North,360,2.0,7.0,46,0.00,,,0.11,Rainwise IP-100,2013-04-25 21:16:00,
2013-04-25 17:21:00,61.4,38.0,29.92,SW,225,0.0,8.0,42,0.00,,,0.11,Rainwise IP-100,2013-04-25 21:21:00,
2013-04-25 17:26:00,61.9,38.0,29.93,NE,45,1.0,5.0,41,0.00,,,0.11,Rainwise IP-100,2013-04-25 21:26:00,
2013-04-25 17:31:00,61.9,38.0,29.93,NE,45,2.0,4.0,41,0.00,,,0.11,Rainwise IP-100,2013-04-25 21:31:00,
2013-04-25 17:36:00,62.1,39.0,29.93,NNE,22,1.0,6.0,42,0.00,,,0.11,Rainwise IP-100,2013-04-25 21:36:00,
2013-04-25 17:41:00,61.9,37.0,29.94,NNE,22,0.0,4.0,39,0.00,,,0.11,Rainwise IP-100,2013-04-25 21:41:00,
2013-04-25 17:46:00,61.7,39.0,29.94,SW,225,1.0,3.0,43,0.00,,,0.11,Rainwise IP-100,2013-04-25 21:46:00,
2013-04-25 17:51:00,61.1,40.0,29.94,West,270,1.0,6.0,47,0.00,,,0.11,Rainwise IP-100,2013-04-25 21:51:00,
2013-04-25 17:56:00,60.6,44.0,29.94,SW,225,2.0,2.0,54,0.00,,,0.11,Rainwise IP-100,2013-04-25 21:56:00,
2013-04-25 18:01:00,60.6,42.0,29.95,WSW,247,0.0,3.0,51,0.00,,,0.11,Rainwise IP-100,2013-04-25 22:01:00,
2013-04-25 18:06:00,60.6,44.0,29.95,North,360,0.0,2.0,54,0.00,,,0.11,Rainwise IP-100,2013-04-25 22:06:00,
2013-04-25 18:11:00,59.1,44.0,29.95,ESE,112,1.0,3.0,58,0.00,,,0.11,Rainwise IP-100,2013-04-25 22:11:00,
2013-04-25 18:16:00,58.9,49.0,29.95,SSE,157,3.0,3.0,69,0.00,,,0.11,Rainwise IP-100,2013-04-25 22:16:00,
2013-04-25 18:21:00,58.6,47.0,29.95,South,180,3.0,4.0,64,0.00,,,0.11,Rainwise IP-100,2013-04-25 22:21:00,
2013-04-25 18:26:00,57.3,47.0,29.95,ESE,112,1.0,6.0,66,0.00,,,0.11,Rainwise IP-100,2013-04-25 22:26:00,
2013-04-25 18:31:00,56.2,50.0,29.95,SE,135,2.0,6.0,79,0.00,,,0.11,Rainwise IP-100,2013-04-25 22:31:00,
2013-04-25 18:36:00,56.3,52.0,29.95,SSE,157,2.0,2.0,84,0.00,,,0.11,Rainwise IP-100,2013-04-25 22:36:00,
2013-04-25 18:41:00,55.8,53.0,29.95,South,180,0.0,2.0,89,0.00,,,0.11,Rainwise IP-100,2013-04-25 22:41:00,
2013-04-25 18:46:00,55.3,52.0,29.95,South,180,0.0,0.0,89,0.00,,,0.11,Rainwise IP-100,2013-04-25 22:46:00,
2013-04-25 18:51:00,54.6,51.0,29.95,South,180,0.0,0.0,89,0.00,,,0.11,Rainwise IP-100,2013-04-25 22:51:00,
2013-04-25 18:56:00,54.5,51.0,29.95,SE,135,0.0,2.0,88,0.00,,,0.11,Rainwise IP-100,2013-04-25 22:56:00,
2013-04-25 19:01:00,53.5,50.5,29.95,SE,135,0.0,0.0,91,0.00,,,0.11,Rainwise IP-100,2013-04-25 23:01:00,
2013-04-25 19:06:00,52.4,50.0,29.95,SE,135,1.0,2.0,92,0.00,,,0.11,Rainwise IP-100,2013-04-25 23:06:00,
2013-04-25 19:11:00,51.8,50.0,29.95,East,90,1.0,2.0,93,0.00,,,0.11,Rainwise IP-100,2013-04-25 23:11:00,
2013-04-25 19:16:00,50.8,49.0,29.95,East,90,1.0,2.0,93,0.00,,,0.11,Rainwise IP-100,2013-04-25 23:16:00,
2013-04-25 19:21:00,50.0,48.0,29.95,East,90,2.0,2.0,94,0.00,,,0.11,Rainwise IP-100,2013-04-25 23:21:00,
2013-04-25 19:26:00,49.9,47.5,29.95,East,90,2.0,2.0,93,0.00,,,0.11,Rainwise IP-100,2013-04-25 23:26:00,
2013-04-25 19:31:00,49.7,48.0,29.95,East,90,1.0,2.0,94,0.00,,,0.11,Rainwise IP-100,2013-04-25 23:31:00,
2013-04-25 19:36:00,49.4,47.5,29.95,ESE,112,1.0,2.0,94,0.00,,,0.11,Rainwise IP-100,2013-04-25 23:36:00,
2013-04-25 19:41:00,48.9,47.5,29.95,ESE,112,0.0,2.0,94,0.00,,,0.11,Rainwise IP-100,2013-04-25 23:41:00,
2013-04-25 19:46:00,48.4,46.0,29.95,ESE,112,1.0,2.0,92,0.00,,,0.11,Rainwise IP-100,2013-04-25 23:46:00,
2013-04-25 19:51:00,47.8,47.0,29.95,ESE,112,1.0,2.0,95,0.00,,,0.11,Rainwise IP-100,2013-04-25 23:51:00,
2013-04-25 19:56:00,47.5,46.0,29.95,ESE,112,2.0,2.0,94,0.00,,,0.11,Rainwise IP-100,2013-04-25 23:56:00,
2013-04-25 20:01:00,47.2,45.0,29.95,ESE,112,1.0,2.0,94,0.00,,,0.11,Rainwise IP-100,2013-04-26 00:01:00,
2013-04-25 20:06:00,46.8,44.0,29.95,ESE,112,2.0,2.0,92,0.00,,,0.11,Rainwise IP-100,2013-04-26 00:06:00,
2013-04-25 20:11:00,46.7,45.0,29.95,ESE,112,2.0,2.0,93,0.00,,,0.11,Rainwise IP-100,2013-04-26 00:11:00,
2013-04-25 20:16:00,46.4,44.0,29.96,ESE,112,2.0,2.0,95,0.00,,,0.11,Rainwise IP-100,2013-04-26 00:16:00,
2013-04-25 20:21:00,46.2,44.0,29.96,ESE,112,2.0,2.0,92,0.00,,,0.11,Rainwise IP-100,2013-04-26 00:21:00,
2013-04-25 20:26:00,45.6,41.0,29.96,East,90,2.0,2.0,84,0.00,,,0.11,Rainwise IP-100,2013-04-26 00:26:00,
2013-04-25 20:31:00,45.1,40.0,29.96,ESE,112,1.0,2.0,84,0.00,,,0.11,Rainwise IP-100,2013-04-26 00:31:00,
2013-04-25 20:36:00,44.7,40.0,29.96,ESE,112,1.0,2.0,83,0.00,,,0.11,Rainwise IP-100,2013-04-26 00:36:00,
2013-04-25 20:41:00,44.4,39.0,29.96,ESE,112,1.0,2.0,83,0.00,,,0.11,Rainwise IP-100,2013-04-26 00:41:00,
2013-04-25 20:46:00,44.3,40.0,29.97,ESE,112,2.0,2.0,86,0.00,,,0.11,Rainwise IP-100,2013-04-26 00:46:00,
2013-04-25 20:51:00,43.8,38.0,29.97,ESE,112,2.0,2.0,80,0.00,,,0.11,Rainwise IP-100,2013-04-26 00:51:00,
2013-04-25 20:56:00,43.3,36.0,29.97,ESE,112,1.0,2.0,74,0.00,,,0.11,Rainwise IP-100,2013-04-26 00:56:00,
2013-04-25 21:01:00,42.9,33.0,29.97,ESE,112,1.0,2.0,69,0.00,,,0.11,Rainwise IP-100,2013-04-26 01:01:00,
2013-04-25 21:06:00,42.6,32.0,29.97,ESE,112,1.0,2.0,64,0.00,,,0.11,Rainwise IP-100,2013-04-26 01:06:00,
2013-04-25 21:11:00,42.4,31.0,29.97,ESE,112,1.0,2.0,64,0.00,,,0.11,Rainwise IP-100,2013-04-26 01:11:00,
2013-04-25 21:16:00,42.2,31.0,29.97,ESE,112,2.0,2.0,64,0.00,,,0.11,Rainwise IP-100,2013-04-26 01:16:00,
2013-04-25 21:21:00,42.6,39.0,29.98,ESE,112,2.0,2.0,86,0.00,,,0.11,Rainwise IP-100,2013-04-26 01:21:00,
2013-04-25 21:26:00,42.7,40.0,29.98,ESE,112,1.0,2.0,90,0.00,,,0.11,Rainwise IP-100,2013-04-26 01:26:00,
2013-04-25 21:31:00,43.6,43.0,29.98,North,360,2.0,2.0,95,0.00,,,0.11,Rainwise IP-100,2013-04-26 01:31:00,
2013-04-25 21:36:00,43.8,43.0,29.98,North,360,0.0,2.0,95,0.00,,,0.11,Rainwise IP-100,2013-04-26 01:36:00,
2013-04-25 21:41:00,44.2,42.0,29.98,North,360,0.0,2.0,94,0.00,,,0.11,Rainwise IP-100,2013-04-26 01:41:00,
2013-04-25 21:46:00,44.3,42.0,29.98,North,360,0.0,2.0,94,0.00,,,0.11,Rainwise IP-100,2013-04-26 01:46:00,
2013-04-25 21:51:00,43.8,42.0,29.99,SE,135,1.0,2.0,94,0.00,,,0.11,Rainwise IP-100,2013-04-26 01:51:00,
2013-04-25 21:56:00,43.8,42.0,29.99,East,90,1.0,3.0,94,0.00,,,0.11,Rainwise IP-100,2013-04-26 01:56:00,
2013-04-25 22:01:00,43.7,43.0,29.99,SE,135,1.0,2.0,95,0.00,,,0.11,Rainwise IP-100,2013-04-26 02:01:00,
2013-04-25 22:06:00,43.6,43.0,29.99,East,90,2.0,2.0,95,0.00,,,0.11,Rainwise IP-100,2013-04-26 02:06:00,
2013-04-25 22:11:00,43.6,43.0,29.99,ESE,112,1.0,3.0,96,0.00,,,0.11,Rainwise IP-100,2013-04-26 02:11:00,
2013-04-25 22:16:00,43.2,42.0,29.99,East,90,0.0,3.0,96,0.00,,,0.11,Rainwise IP-100,2013-04-26 02:16:00,
2013-04-25 22:21:00,42.7,40.0,29.99,East,90,2.0,2.0,91,0.00,,,0.11,Rainwise IP-100,2013-04-26 02:21:00,
2013-04-25 22:26:00,42.1,38.0,29.99,NW,315,0.0,2.0,87,0.00,,,0.11,Rainwise IP-100,2013-04-26 02:26:00,
2013-04-25 22:31:00,41.8,40.0,29.99,SE,135,1.0,2.0,91,0.00,,,0.11,Rainwise IP-100,2013-04-26 02:31:00,
2013-04-25 22:36:00,41.7,39.0,29.99,ESE,112,1.0,4.0,88,0.00,,,0.11,Rainwise IP-100,2013-04-26 02:36:00,
2013-04-25 22:41:00,41.8,41.0,29.99,SE,135,2.0,3.0,95,0.00,,,0.11,Rainwise IP-100,2013-04-26 02:41:00,
2013-04-25 22:46:00,41.7,40.0,29.99,ESE,112,2.0,2.0,93,0.00,,,0.11,Rainwise IP-100,2013-04-26 02:46:00,
2013-04-25 22:51:00,41.7,40.0,30.00,ESE,112,1.0,2.0,94,0.00,,,0.11,Rainwise IP-100,2013-04-26 02:51:00,
2013-04-25 22:56:00,41.4,39.0,30.00,SE,135,1.0,2.0,93,0.00,,,0.11,Rainwise IP-100,2013-04-26 02:56:00,
2013-04-25 23:01:00,41.4,39.0,29.99,SE,135,1.0,4.0,94,0.00,,,0.11,Rainwise IP-100,2013-04-26 03:01:00,
2013-04-25 23:06:00,41.2,38.0,30.00,ESE,112,1.0,3.0,89,0.00,,,0.11,Rainwise IP-100,2013-04-26 03:06:00,
2013-04-25 23:11:00,40.7,38.0,30.00,ESE,112,2.0,2.0,89,0.00,,,0.11,Rainwise IP-100,2013-04-26 03:11:00,
2013-04-25 23:16:00,40.3,38.0,30.00,ESE,112,1.0,2.0,90,0.00,,,0.11,Rainwise IP-100,2013-04-26 03:16:00,
2013-04-25 23:21:00,39.8,36.0,30.00,ESE,112,2.0,2.0,84,0.00,,,0.11,Rainwise IP-100,2013-04-26 03:21:00,
2013-04-25 23:26:00,39.6,37.0,30.00,ESE,112,1.0,2.0,87,0.00,,,0.11,Rainwise IP-100,2013-04-26 03:26:00,
2013-04-25 23:31:00,39.4,36.0,30.00,ESE,112,1.0,2.0,89,0.00,,,0.11,Rainwise IP-100,2013-04-26 03:31:00,
2013-04-25 23:36:00,39.3,35.0,30.00,ESE,112,1.0,2.0,85,0.00,,,0.11,Rainwise IP-100,2013-04-26 03:36:00,
2013-04-25 23:41:00,39.2,35.0,30.00,ESE,112,1.0,3.0,85,0.00,,,0.11,Rainwise IP-100,2013-04-26 03:41:00,
2013-04-25 23:46:00,39.1,35.0,30.00,ESE,112,2.0,2.0,84,0.00,,,0.11,Rainwise IP-100,2013-04-26 03:46:00,
2013-04-25 23:51:00,38.8,33.0,30.00,SE,135,2.0,2.0,78,0.00,,,0.11,Rainwise IP-100,2013-04-26 03:51:00,
2013-04-25 23:56:00,38.6,33.0,30.00,SE,135,2.0,2.0,78,0.00,,,0.11,Rainwise IP-100,2013-04-26 03:56:00,